Track STARLINK-1174 now! 10-day predictions STARLINK-1174 is classified as:
1 45075U 20006AH 21018.81150661 -.00001253 00000-0 -66863-4 0 9995 2 45075 53.0022 47.7626 0001319 70.9364 289.1767 15.05582290 54006